[[{"header":{"parameterUnit":"m.s-1","parameterCategory":1,"la1":30.2991,"la2":30.254,"lo1":-89.0895,"lo2":-89.0444,"dy":0.0017,"dx":0.0017,"nx":28,"ny":28,"refTime":"2025-01-13T09:00:00:Z","depth":0,"parameterNumber":2,"parameterNumberName":"U-component_of_WINDS"},"data":[0,0,0,0,0,0,0,0,0,0,0,0,0,0,0,0,0,0,0,0,0,0,0,0,0,0,0,0,0,0,0,0,0,0,0,0,0,0,0,0,0,0,0,0,0,0,0,0,0,0,0,0,0,0,0,0,0,0,-2.5833,-2.5833,0,-2.587,-2.587,-2.5871,-2.578,-2.5778,-2.5775,-2.5772,-2.5811,-2.5815,-2.5818,0,0,0,0,0,0,0,0,0,0,0,0,0,-2.5686,-2.5689,-2.5833,-2.5834,-2.5834,-2.587,-2.587,-2.5871,-2.5781,-2.5778,-2.5774,-2.5771,-2.581,-2.5814,-2.5819,0,0,0,0,0,0,0,0,0,0,0,0,0,-2.5739,-2.569,-2.5833,-2.5793,-2.579,-2.587,-2.587,-2.5871,-2.5782,-2.5777,-2.5773,-2.5769,-2.5808,-2.5814,-2.5819,-2.5939,0,0,-2.5836,-2.5839,0,0,0,0,0,0,0,0,-2.5736,-2.5744,-2.5799,-2.5796,-2.5793,-2.5816,-2.5832,-2.5894,-2.5783,-2.5785,-2.5772,-2.5767,-2.5816,-2.5821,-2.5837,-2.5941,-2.5943,-2.5837,-2.584,-2.5842,-2.5844,0,0,0,0,0,0,0,-2.5732,-2.5742,-2.5848,-2.58,-2.5796,-2.5774,-2.5777,-2.5844,-2.5824,-2.5785,-2.5778,-2.5784,-2.5814,-2.5832,-2.5838,-2.5943,-2.5837,-2.5842,-2.5845,-2.5847,-2.6146,-2.615,0,0,0,0,0,0,-2.5734,-2.574,-2.5846,-2.5849,-2.5753,-2.578,-2.5783,-2.5813,-2.5823,-2.5821,-2.5787,-2.5779,-2.5825,-2.5831,-2.5839,-2.5979,-2.5842,-2.5848,-2.5851,-2.6141,-2.6147,-2.6152,0,0,0,0,0,0,-2.5731,-2.5744,-2.5845,-2.5793,-2.5804,-2.5787,-2.5821,-2.5816,-2.5834,-2.5825,-2.5821,-2.5809,-2.5822,-2.5831,-2.5914,-2.5979,-2.585,-2.5855,-2.6136,-2.6143,-2.615,-2.6262,0,0,0,0,0,0,-2.5727,-2.5744,-2.5789,-2.5794,-2.5807,-2.5921,-2.5825,-2.582,-2.5844,-2.5834,-2.5845,-2.5843,-2.5819,-2.5907,-2.592,-2.5985,-2.586,-2.613,-2.6139,-2.6147,-2.6253,-2.6272,-2.6289,0,0,0,0,0,-2.5722,-2.582,-2.5792,-2.5805,-2.5863,-2.5925,-2.5932,-2.5902,-2.5849,-2.5895,-2.5889,-2.5843,-2.597,-2.5916,-2.593,-2.5998,-2.6126,-2.6137,-2.6147,-2.6245,-2.6268,-2.6288,0,0,0,0,0,0,-2.5823,-2.582,-2.5789,-2.5891,-2.5909,-2.5909,-2.5966,-2.5928,-2.5962,-2.5951,-2.5913,-2.5916,-2.6007,-2.601,-2.595,-2.6114,-2.6039,-2.6053,-2.6109,-2.6131,-2.6149,-2.6147,-2.5864,0,0,0,0,0,-2.5857,-2.5907,-2.5901,-2.5992,-2.6002,-2.5983,-2.6008,-2.5984,-2.6001,-2.6008,-2.6008,-2.6027,-2.6071,-2.6101,-2.6141,-2.6252,-2.6253,-2.6305,-2.6323,-2.6338,-2.6351,-2.641,-2.6433,-2.6186,-2.6186,-2.6186,0,0,-2.5929,-2.5933,-2.5967,-2.6013,-2.6023,-2.6076,-2.599,-2.6049,-2.6088,-2.6017,-2.6096,-2.6097,-2.6115,-2.6213,-2.6256,-2.6219,-2.6419,-2.6352,-2.6364,-2.6368,-2.6423,-2.6446,-2.6467,-2.6193,-2.6192,-2.6191,0,0,-2.6086,-2.6094,-2.617,-2.6182,-2.6199,-2.6185,-2.6204,-2.621,-2.6208,-2.6286,-2.6234,-2.6279,-2.6356,-2.6371,-2.6389,-2.655,-2.6509,-2.6564,-2.6659,-2.6717,-2.6736,-2.6753,-2.6811,-2.6832,-2.6576,-2.6577,-2.6577,0,-2.6173,-2.625,-2.6214,-2.6277,-2.6299,-2.6236,-2.6313,-2.6327,-2.6357,-2.6373,-2.633,-2.6425,-2.6432,-2.6533,-2.6572,-2.6588,-2.6608,-2.6563,-2.6736,-2.6753,-2.6768,-2.6823,-2.6845,-2.6583,-2.6583,-2.6582,-2.6581,0,-2.6355,-2.641,-2.6469,-2.6499,-2.6527,-2.6597,-2.6572,-2.6605,-2.6577,-2.6568,-2.6648,-2.6655,-2.6695,-2.6717,-2.6691,-2.6814,-2.679,-2.6742,-2.6667,-2.6799,-2.685,-2.6871,-2.6593,-2.659,-2.6588,-2.6587,0,0,-2.6579,-2.6587,-2.661,-2.6622,-2.6636,-2.6677,-2.6744,-2.6782,-2.6811,-2.6833,-2.6889,-2.6954,-2.691,-2.693,-2.6905,-2.6956,-2.7083,-2.6901,-2.6901,-2.6936,-2.7219,-2.7256,-2.7281,-2.7055,-2.7059,-2.7062,-2.7218,0,-2.6735,-2.6849,-2.6819,-2.6933,-2.6982,-2.6922,-2.698,-2.6995,-2.6988,-2.7029,-2.702,-2.7067,-2.7005,-2.7017,-2.7064,-2.7058,-2.714,-2.7046,-2.7106,-2.7109,-2.7105,-2.7307,-2.7346,-2.7493,-2.7237,-2.7241,-2.7243,0,-2.6932,-2.6961,-2.708,-2.7085,-2.7104,-2.7157,-2.719,-2.723,-2.7245,-2.7236,-2.7258,-2.7222,-2.7287,-2.721,-2.73,-2.7237,-2.7259,-2.726,-2.7265,-2.727,-2.7185,-2.7319,-2.7539,-2.7562,-2.7274,-2.7271,-2.7269,0,-2.7084,-2.7153,-2.7233,-2.7245,-2.7253,-2.7291,-2.7296,-2.7307,-2.7332,-2.736,-2.7376,-2.7412,-2.7432,-2.746,-2.7435,-2.7381,-2.7529,-2.7449,-2.7523,-2.7524,-2.7559,-2.7557,-2.7787,-2.7572,-2.7571,-2.7571,-2.7571,0,-2.7262,-2.7337,-2.7301,-2.7351,-2.7433,-2.7397,-2.748,-2.7477,-2.7487,-2.7535,-2.7485,-2.7531,-2.7494,-2.7537,-2.7518,-2.7595,-2.7604,-2.7599,-2.7593,-2.7604,-2.7605,-2.762,-2.7609,-2.7577,-2.7576,-2.7574,-2.7573,0,-2.7446,-2.7425,-2.7509,-2.7508,-2.751,-2.7571,-2.757,-2.7616,-2.7604,-2.7665,-2.7677,-2.7659,-2.7707,-2.7684,-2.7734,-2.7721,-2.7821,-2.7801,-2.7816,-2.7811,-2.7887,-2.788,-2.8134,-2.8166,-2.793,-2.7932,-2.7934,0,-2.7562,-2.7618,-2.7624,-2.7652,-2.766,-2.7706,-2.7731,-2.7697,-2.7725,-2.7746,-2.7789,-2.7832,-2.7865,-2.7944,-2.7935,-2.7973,-2.7954,-2.804,-2.7959,-2.7968,-2.7956,-2.7953,-2.7959,-2.8057,-2.806,-2.8062,-2.8064,0,-2.7769,-2.7756,-2.7793,-2.7827,-2.7858,-2.7883,-2.7904,-2.793,-2.7897,-2.7931,-2.7979,-2.8004,-2.8054,-2.8098,-2.813,-2.8135,-2.8095,-2.8089,-2.8108,-2.8121,-2.8128,-2.8125,-2.7861,-2.8084,-2.8082,-2.808,-2.8079,-2.8078,-2.7923,-2.797,-2.7981,-2.8025,-2.8037,-2.8057,-2.81,-2.8093,-2.8132,-2.817,-2.8147,-2.8203,-2.8216,-2.8255,-2.8265,-2.8309,-2.8274,-2.8302,-2.8309,-2.8317,-2.8327,-2.812,-2.8314,-2.8314,-2.8313,-2.8313,-2.8312,0,-2.8128,-2.8132,-2.8172,-2.8203,-2.8237,-2.8194,-2.8215,-2.8246,-2.8296,-2.8311,-2.8344,-2.8399,-2.844,-2.8434,-2.8472,-2.8508,-2.849,-2.8519,-2.8517,-2.8518,-2.8356,-2.8336,-2.8533,-2.8533,-2.8533,-2.8533,-2.8533,-2.8533,-2.8239,-2.8317,-2.8305,-2.8387,-2.839,-2.8444,-2.846,-2.8478,-2.849,-2.8553,-2.8587,-2.8583,-2.8589,-2.8627,-2.8663,-2.866,-2.8677,-2.8713,-2.8703,-2.8552,-2.853,-2.8509,-2.849,-2.8716,-2.8717,-2.8862,-2.8864,-2.8865]},{"header":{"parameterUnit":"m.s-1","parameterCategory":1,"la1":30.2991,"la2":30.254,"lo1":-89.0895,"lo2":-89.0444,"dy":0.0017,"dx":0.0017,"nx":28,"ny":28,"refTime":"2025-01-13T09:00:00:Z","depth":0,"parameterNumber":3,"parameterNumberName":"V-component_of_WINDS"},"data":[0,0,0,0,0,0,0,0,0,0,0,0,0,0,0,0,0,0,0,0,0,0,0,0,0,0,0,0,0,0,0,0,0,0,0,0,0,0,0,0,0,0,0,0,0,0,0,0,0,0,0,0,0,0,0,0,0,0,-4.6488,-4.6488,0,-4.6557,-4.6558,-4.6558,-4.6492,-4.649,-4.6487,-4.6484,-4.6552,-4.6556,-4.656,0,0,0,0,0,0,0,0,0,0,0,0,0,-4.6293,-4.6297,-4.6488,-4.6489,-4.6489,-4.6557,-4.6558,-4.6559,-4.6493,-4.6489,-4.6486,-4.6483,-4.655,-4.6555,-4.6561,0,0,0,0,0,0,0,0,0,0,0,0,0,-4.6372,-4.6299,-4.6488,-4.6465,-4.6463,-4.6557,-4.6558,-4.6559,-4.6493,-4.6489,-4.6485,-4.6482,-4.6549,-4.6555,-4.6561,-4.668,0,0,-4.6581,-4.6583,0,0,0,0,0,0,0,0,-4.6367,-4.6379,-4.6467,-4.6466,-4.6465,-4.6512,-4.6514,-4.6599,-4.6494,-4.6482,-4.6484,-4.648,-4.6542,-4.6548,-4.657,-4.6683,-4.6686,-4.6581,-4.6585,-4.6588,-4.659,0,0,0,0,0,0,0,-4.6362,-4.6376,-4.6515,-4.6468,-4.6467,-4.6449,-4.6456,-4.653,-4.6533,-4.6483,-4.6478,-4.6487,-4.654,-4.6564,-4.6571,-4.6687,-4.6581,-4.6587,-4.6591,-4.6593,-4.6898,-4.6902,0,0,0,0,0,0,-4.636,-4.6371,-4.6513,-4.6517,-4.6406,-4.6456,-4.6464,-4.6501,-4.6532,-4.6533,-4.6491,-4.6484,-4.6555,-4.6563,-4.6573,-4.6713,-4.6588,-4.6594,-4.6597,-4.6894,-4.6899,-4.6903,0,0,0,0,0,0,-4.6356,-4.6373,-4.651,-4.6443,-4.6459,-4.6464,-4.6506,-4.6504,-4.6528,-4.6538,-4.6538,-4.6515,-4.6552,-4.6564,-4.6653,-4.6714,-4.6597,-4.6602,-4.6889,-4.6895,-4.6901,-4.6993,0,0,0,0,0,0,-4.635,-4.6372,-4.6418,-4.6445,-4.6463,-4.6591,-4.651,-4.6508,-4.6539,-4.6531,-4.656,-4.6561,-4.655,-4.6644,-4.666,-4.6721,-4.6607,-4.6883,-4.6892,-4.6899,-4.6985,-4.7002,-4.7017,0,0,0,0,0,-4.6344,-4.6441,-4.6421,-4.6438,-4.6521,-4.6595,-4.6605,-4.6591,-4.6545,-4.659,-4.6596,-4.656,-4.6705,-4.6654,-4.6671,-4.6735,-4.6879,-4.6889,-4.6898,-4.6978,-4.6999,-4.7016,0,0,0,0,0,0,-4.6421,-4.6444,-4.6422,-4.6531,-4.6562,-4.6583,-4.6641,-4.6614,-4.6657,-4.6648,-4.6627,-4.6634,-4.6728,-4.674,-4.6683,-4.685,-4.6784,-4.6798,-4.6839,-4.6859,-4.6874,-4.687,-4.6613,0,0,0,0,0,-4.6451,-4.651,-4.6526,-4.6621,-4.6637,-4.6637,-4.6668,-4.6654,-4.6685,-4.6697,-4.6709,-4.6739,-4.6791,-4.6825,-4.6874,-4.6986,-4.699,-4.7038,-4.7054,-4.7067,-4.7079,-4.7137,-4.7158,-4.6935,-4.6935,-4.6935,0,0,-4.6513,-4.6533,-4.6571,-4.6637,-4.6659,-4.6719,-4.6648,-4.6715,-4.6759,-4.6706,-4.6792,-4.6802,-4.6833,-4.6935,-4.698,-4.6947,-4.7141,-4.7079,-4.709,-4.7094,-4.7149,-4.7171,-4.7189,-4.6941,-4.694,-4.6939,0,0,-4.6656,-4.6678,-4.6759,-4.6782,-4.6816,-4.6815,-4.6834,-4.686,-4.6865,-4.695,-4.6912,-4.6963,-4.7053,-4.7077,-4.7101,-4.7251,-4.7219,-4.7267,-4.7351,-4.7408,-4.7426,-4.7441,-4.7494,-4.7514,-4.7279,-4.7279,-4.728,0,-4.6729,-4.6819,-4.6803,-4.6873,-4.6902,-4.6858,-4.6938,-4.6961,-4.7009,-4.703,-4.6993,-4.7104,-4.7122,-4.7228,-4.7264,-4.7285,-4.7305,-4.7264,-4.7425,-4.744,-4.7454,-4.7505,-4.7525,-4.7285,-4.7284,-4.7284,-4.7283,0,-4.6906,-4.6969,-4.703,-4.7078,-4.7114,-4.7189,-4.7182,-4.722,-4.7203,-4.7205,-4.7291,-4.7311,-4.7362,-4.7386,-4.737,-4.7489,-4.7467,-4.7428,-4.7362,-4.7482,-4.7528,-4.7547,-4.7293,-4.7291,-4.7289,-4.7288,0,0,-4.7101,-4.7139,-4.7161,-4.7182,-4.7216,-4.7264,-4.7335,-4.7386,-4.7418,-4.7452,-4.7511,-4.7587,-4.7551,-4.7578,-4.7564,-4.7614,-4.7731,-4.7568,-4.7569,-4.7597,-4.7862,-4.7891,-4.7913,-4.771,-4.7713,-4.7716,-4.7859,0,-4.7245,-4.7372,-4.7358,-4.7478,-4.7535,-4.7493,-4.7555,-4.7582,-4.7585,-4.7632,-4.7635,-4.769,-4.7638,-4.7654,-4.7702,-4.7707,-4.7784,-4.7696,-4.7762,-4.7765,-4.7756,-4.7938,-4.7969,-4.8103,-4.7877,-4.788,-4.7882,0,-4.7431,-4.7472,-4.7598,-4.7622,-4.7645,-4.7702,-4.7746,-4.7793,-4.7821,-4.7819,-4.7849,-4.7825,-4.7895,-4.7828,-4.7923,-4.7864,-4.789,-4.7896,-4.7901,-4.7906,-4.7831,-4.7948,-4.8145,-4.8165,-4.7911,-4.7909,-4.7907,0,-4.756,-4.7647,-4.7733,-4.7752,-4.7782,-4.7822,-4.7836,-4.7861,-4.7892,-4.793,-4.7949,-4.7995,-4.802,-4.8055,-4.8043,-4.7996,-4.8141,-4.8072,-4.814,-4.8141,-4.8173,-4.8171,-4.8377,-4.819,-4.819,-4.819,-4.8189,0,-4.7723,-4.7801,-4.7791,-4.7844,-4.7929,-4.7912,-4.7997,-4.8005,-4.8027,-4.808,-4.8046,-4.8095,-4.8077,-4.8125,-4.8117,-4.8196,-4.8207,-4.8207,-4.8204,-4.821,-4.821,-4.8227,-4.8217,-4.8195,-4.8194,-4.8193,-4.8192,0,-4.7881,-4.7878,-4.7969,-4.799,-4.7997,-4.8059,-4.8076,-4.8125,-4.8125,-4.8191,-4.8206,-4.8206,-4.826,-4.8252,-4.8313,-4.8306,-4.8405,-4.8391,-4.8396,-4.8393,-4.8461,-4.8454,-4.8684,-4.8713,-4.8509,-4.8511,-4.8512,0,-4.7985,-4.8045,-4.8072,-4.8105,-4.8122,-4.8176,-4.8207,-4.8192,-4.8226,-4.8261,-4.8305,-4.8357,-4.8398,-4.8486,-4.8491,-4.8536,-4.8522,-4.8599,-4.8529,-4.8533,-4.8522,-4.8519,-4.8524,-4.8614,-4.8616,-4.8618,-4.8619,0,-4.817,-4.8165,-4.8212,-4.8259,-4.8297,-4.8333,-4.8365,-4.8393,-4.838,-4.8419,-4.8475,-4.8507,-4.8568,-4.8619,-4.8662,-4.8674,-4.8645,-4.8642,-4.8659,-4.8667,-4.8667,-4.8667,-4.8434,-4.8636,-4.8635,-4.8633,-4.8632,-4.8632,-4.8304,-4.8354,-4.8381,-4.8434,-4.8457,-4.8487,-4.8533,-4.8539,-4.8586,-4.8636,-4.8623,-4.8686,-4.871,-4.8764,-4.8781,-4.8829,-4.88,-4.8826,-4.8833,-4.884,-4.8847,-4.866,-4.8837,-4.8836,-4.8836,-4.8835,-4.8835,0,-4.8486,-4.8501,-4.855,-4.8596,-4.8637,-4.8607,-4.864,-4.8676,-4.8732,-4.8758,-4.8799,-4.8862,-4.8911,-4.8918,-4.8964,-4.9001,-4.8988,-4.9013,-4.901,-4.9013,-4.8871,-4.8851,-4.9023,-4.9023,-4.9023,-4.9023,-4.9023,-4.9023,-4.8586,-4.8669,-4.8667,-4.876,-4.8773,-4.8836,-4.8857,-4.8884,-4.8905,-4.8977,-4.9018,-4.9023,-4.9041,-4.9088,-4.9131,-4.9131,-4.915,-4.918,-4.9176,-4.9042,-4.9024,-4.9006,-4.8986,-4.9184,-4.9185,-4.9314,-4.9315,-4.9316]}]]